Weather History for KMSN - January, 2014

Change the Weather History Date:

Saturday, January 11, 2014

  Actual Average Record
Temperature  
Mean Temperature 32 °F 18 °F  
Max Temperature 36 °F 26 °F 53 °F (1880)
Min Temperature 28 °F 11 °F -28 °F (1979)
Degree Days  
Heating Degree Days 33 46  
Month to date heating degree days 635 506  
Since 1 July heating degree days 3620 3385  
Cooling Degree Days 0 0  
Month to date cooling degree days 0 0  
Year to date cooling degree days 0 0  
Moisture  
Dew Point 29 °F    
Average Humidity 88    
Maximum Humidity 100    
Minimum Humidity 75    
Precipitation  
Precipitation T in 0.04 in 0.75 in (1890)
Month to date precipitation 0.16 0.45  
Year to date precipitation 0.16 0.45  
Snow  
Snow T in 0.50 in 6.50 in (1991)
Month to date snowfall 0.3 4.5  
Since 1 July snowfall 25.9 22.1  
Snow Depth 5.00 in    
Sea Level Pressure  
Sea Level Pressure 29.53 in    
Wind  
Wind Speed 8 mph (WNW)    
Max Wind Speed 16 mph    
Max Gust Speed 22 mph    
Visibility 8 miles    
Events Snow    
T = Trace of Precipitation, MM = Missing Value Source: NWS Daily Summary

Daily Weather History Graph

Daily Weather History Graph

Search for Another Location

Airport or City:

Trip Planner

Search our weather history database for the weather conditions in past years. The results will help you decide how hot, cold, wet, or windy it might be!

Date:

Astronomy

Jan. 11, 2014 Rise Set
Actual Time 7:27 AM CST 4:43 PM CST
Civil Twilight 6:56 AM CST 5:14 PM CST
Nautical Twilight 6:20 AM CST 5:50 PM CST
Astronomical Twilight 5:46 AM CST 6:24 PM CST
Moon 1:28 PM CST (1/11) 3:31 AM CST (1/11)
Length of Visible Light 10h 18m
Length of Day
9h 15m
Waxing Gibbous, 83% of the Moon is Illuminated
Jan 11
Waxing Gibbous
Jan 15
Full
Jan 23
Last Quarter
Jan 30
New
Feb 6
First Quarter

Hourly Weather History & Observations

Time (CST) Temp. Windchill Dew Point Humidity Pressure Visibility Wind Dir Wind Speed Gust Speed Precip Events Conditions
12:13 AM 36.0 °F 31.1 °F 35.1 °F 97% 29.43 in 0.8 mi SW 5.8 mph - N/A   Mist
12:35 AM 36.0 °F 31.1 °F 35.1 °F 97% 29.42 in 1.0 mi SW 5.8 mph - N/A   Mist
12:53 AM 36.0 °F 31.1 °F 35.1 °F 97% 29.44 in 1.0 mi WSW 5.8 mph - N/A   Mist
1:07 AM 35.1 °F 32.2 °F 35.1 °F 100% 29.42 in 0.8 mi Variable 3.5 mph - N/A   Mist
1:16 AM 36.0 °F 33.3 °F 35.1 °F 97% 29.41 in 1.5 mi WSW 3.5 mph - N/A   Overcast
1:26 AM 35.1 °F 31.0 °F 35.1 °F 100% 29.41 in 2.5 mi WSW 4.6 mph - N/A   Overcast
1:35 AM 35.1 °F 31.0 °F 34.0 °F 96% 29.42 in 4.0 mi Variable 4.6 mph - N/A   Overcast
1:53 AM 35.1 °F - 34.0 °F 96% 29.43 in 7.0 mi Calm Calm - N/A   Overcast
2:01 AM 35.1 °F 32.2 °F 34.0 °F 96% 29.41 in 7.0 mi Variable 3.5 mph - N/A   Overcast
2:53 AM 34.0 °F 28.0 °F 33.1 °F 96% 29.44 in 8.0 mi West 6.9 mph - N/A   Overcast
3:05 AM 34.0 °F 31.0 °F 32.0 °F 92% 29.42 in 8.0 mi Variable 3.5 mph - N/A   Overcast
3:16 AM 34.0 °F 29.8 °F 32.0 °F 92% 29.42 in 7.0 mi Variable 4.6 mph - N/A   Overcast
3:53 AM 34.0 °F 28.0 °F 32.0 °F 92% 29.44 in 4.0 mi WNW 6.9 mph - N/A   Overcast
4:53 AM 34.0 °F 28.8 °F 32.0 °F 92% 29.44 in 5.0 mi WNW 5.8 mph - N/A   Overcast
5:53 AM 33.1 °F 28.7 °F 30.9 °F 92% 29.45 in 8.0 mi WNW 4.6 mph - 0.00 in Snow Light Snow
5:59 AM 33.1 °F 27.7 °F 30.9 °F 92% 29.43 in 9.0 mi WNW 5.8 mph - 0.00 in Snow Light Snow
6:41 AM 33.1 °F 26.1 °F 28.9 °F 85% 29.43 in 9.0 mi NW 8.1 mph 17.3 mph 0.00 in Snow Light Snow
6:53 AM 33.1 °F 24.9 °F 28.0 °F 82% 29.46 in 10.0 mi WNW 10.4 mph - 0.00 in   Overcast
7:50 AM 33.8 °F 28.6 °F 28.4 °F 81% 29.45 in 10.0 mi WNW 5.8 mph - N/A   Overcast
7:53 AM 33.1 °F 26.9 °F 28.0 °F 82% 29.47 in 10.0 mi WNW 6.9 mph - N/A   Overcast
8:53 AM 32.0 °F 24.8 °F 28.0 °F 85% 29.50 in 9.0 mi WNW 8.1 mph - N/A   Overcast
9:09 AM 32.0 °F 26.4 °F 28.0 °F 85% 29.48 in 9.0 mi WNW 5.8 mph - N/A   Overcast
9:53 AM 32.0 °F 24.2 °F 28.0 °F 85% 29.51 in 10.0 mi WNW 9.2 mph - N/A   Overcast
10:53 AM 32.0 °F 23.6 °F 27.0 °F 82% 29.52 in 10.0 mi WNW 10.4 mph - N/A   Overcast
11:53 AM 33.1 °F 26.9 °F 27.0 °F 78% 29.50 in 10.0 mi Variable 6.9 mph 16.1 mph N/A   Overcast
12:08 PM 33.1 °F 27.7 °F 27.0 °F 78% 29.47 in 10.0 mi WNW 5.8 mph - N/A   Overcast
12:45 PM 33.1 °F 25.5 °F 27.0 °F 78% 29.48 in 9.0 mi WNW 9.2 mph 20.7 mph N/A   Overcast
12:53 PM 33.1 °F 23.9 °F 26.1 °F 75% 29.50 in 9.0 mi WNW 12.7 mph 19.6 mph N/A   Overcast
1:53 PM 33.1 °F 24.9 °F 27.0 °F 78% 29.52 in 7.0 mi WNW 10.4 mph - N/A   Overcast
2:53 PM 32.0 °F 23.0 °F 27.0 °F 82% 29.55 in 8.0 mi WNW 11.5 mph 19.6 mph N/A   Overcast
3:17 PM 32.0 °F 24.2 °F 26.1 °F 79% 29.54 in 9.0 mi WNW 9.2 mph 19.6 mph N/A   Overcast
3:53 PM 32.0 °F 24.2 °F 26.1 °F 79% 29.59 in 9.0 mi WNW 9.2 mph - N/A   Overcast
4:18 PM 32.0 °F 24.8 °F 26.1 °F 79% 29.58 in 9.0 mi NW 8.1 mph 16.1 mph N/A   Overcast
4:53 PM 32.0 °F 23.6 °F 27.0 °F 82% 29.62 in 9.0 mi WNW 10.4 mph 16.1 mph N/A   Overcast
5:17 PM 32.0 °F 24.2 °F 27.0 °F 82% 29.60 in 10.0 mi WNW 9.2 mph - N/A   Overcast
5:53 PM 32.0 °F 23.6 °F 26.1 °F 79% 29.65 in 8.0 mi WNW 10.4 mph - N/A   Overcast
6:53 PM 30.0 °F 21.1 °F 25.0 °F 82% 29.67 in 10.0 mi WNW 10.4 mph - N/A   Overcast
7:53 PM 30.0 °F 21.7 °F 25.0 °F 82% 29.71 in 9.0 mi WNW 9.2 mph 17.3 mph N/A   Overcast
8:53 PM 30.0 °F 23.2 °F 25.0 °F 82% 29.73 in 10.0 mi West 6.9 mph - N/A   Overcast
9:53 PM 30.0 °F 23.2 °F 24.1 °F 79% 29.76 in 10.0 mi Variable 6.9 mph - N/A   Overcast
10:43 PM 30.0 °F 24.1 °F 24.1 °F 79% 29.73 in 10.0 mi West 5.8 mph - N/A   Mostly Cloudy
10:53 PM 28.9 °F 22.8 °F 24.1 °F 82% 29.76 in 10.0 mi West 5.8 mph - N/A   Mostly Cloudy
11:53 PM 28.0 °F 24.2 °F 23.0 °F 81% 29.77 in 10.0 mi Variable 3.5 mph - N/A   Overcast